Вернуться в каталог

STARLINK-35415

АктивенСвязьVLEO
NORAD 65885·PAYLOAD·🇺🇸 United States

Запущен Oct 7, 2025 с Cape Canaveral Space Force Station

Loading…

Ближайшие Пролёты (ближайшие 24 часа)

TLE

СвежийSource: CelesTrak SupGP

Эпоха: Sep 15, 2026, 03:41 UTC

1 65885C 25224D   26258.15395833 -.00068080  00000+0 -20118-2 0  2582
2 65885  53.1577 206.8567 0001493  88.3315 319.4087 15.34418203    15

Отслеживайте STARLINK-35415 в реальном времени с AllMySat

Download on the App Store